Location: Newark
(25.5428°S, 54.5819°W)
Time: 05:32:19
(UTC+00:00)

Envisat - Pass Details

Date: 24 July 2019
Orbit: 764 x 766 km, 98.1° (Epoch: 20 August)

Event Time Altitude Azimuth Distance (km) Brightness Sun altitude
Exits shadow 23:18:40 11° 191° (S) 2,248 5.4 -28.9°
Maximum altitude 23:23:01 34° 253° (WSW) 1,262 4.5 -29.9°
Drops below altitude 10° 23:27:33 10° 316° (NW) 2,302 6.1 -30.9°
Sets 23:30:02 0° 326° (NW) 3,220 6.8 -31.5°
